sat.trackr.live / text

‹ back to catalog

STARLINK-30852

NORAD 58373 · 2023-177Y

PAYLOAD ACTIVE UNKNOWN

§ Identity

Operator
Country
US
Launch date
2023-11-18
Launch site
AFETR
Launch vehicle
Mass (kg)
RCS (m²)

Purposes: comms

External: N2YO · Heavens-Above · Gunter

§ Orbital elements

Epoch: 2026-05-25T02:05:33.068256Z

Period
94.27 min
Inclination
43.0029°
Eccentricity
0.0000875
Mean motion
15.27577036 rev/d
Perigee alt
482.5 km
Apogee alt
483.7 km
Semi-major
6,861.2 km
B*
3.5248e-5
RAAN
278.9314°
Arg perigee
279.9400°
Mean anomaly
80.1353°
Rev number
13,991

§ Raw data

STARLINK-308521 58373U 23177Y   26145.08718829  .00000708  00000+0  35248-4 0  99972 58373  43.0029 278.9314 0000875 279.9400  80.1353 15.27577036139917

JSON: /api/v1/satellites/58373 · /tle

For live sub-satellite position, see the globe view (requires WebGL).

§ Visibility from observer

Set your observer location to see the next 7 days of passes ≥ 10°. The values pass through the URL so the page stays shareable.

No JS? Fill the form by hand. The geolocation button needs JavaScript.